DECAYED

OBJECT W, 47952 (Decayed)

Orbit data source: Space-Track

You're viewing an Uncataloged Satellite

Recently launched and/or uncataloged satellites may have evolving metadata. Metadata may include but not limited to: Owner, Maufacturer, Bus, Motor, and Mission.

OBJECT W, 47952 was a satellite in LEO that was launched on Mon, 22 Mar 2021 UTC via a SOYUZ-2-1A launch vehicle from the Tyuratam Missile And Space Complex (TTMTR). Unknown objects in Earth's orbit typically refer to objects detected orbiting the Earth but have not yet been identified or cataloged. These objects could be anything from previously untracked satellites, spent rocket stages, debris from satellite collisions, or even natural meteoroids temporarily captured by Earth's gravity. This object's orbit decayed before it could be identified.

Not visible in the next 10 days
Identifier
47952, 2021-022W
Orbit
Decayed
Country
Flag of TBDTBD
Related business
Flag of RUNational Research University Higher School of Economics (RU)
Manufacturer
VShE
Mission
Decayed Amateur Technology
Bus & Motor
CUBESAT 3U, Unknown motor
Mass
4 kg wet, 4 kg dry
Launch date (UTC)
2021-03-22 (5 years ago)
Launch vehicle
SOYUZ-2-1A
Launch site
Tyuratam Missile And Space Complex (TTMTR)
Object type
Unknown
Shape & HBR
Box, 0.1 m
Radar Cross Section
0.035 m², Medium (>0.1 m² and < 1m²)

Expand to show TLE details & history
Last TLE update: 1 year ago

TLE from 1 year ago
0 OBJECT W
1 47952U 21022W   25157.69972699  .06655353  25454-5  93288-3 0  9992
2 47952  97.3980  72.5414 0010307 219.3637 140.6911 16.34906352233436
Epoch: 2025-06-06T16:47Z
TLE epoch observation values (Epoch: 2025-06-06T16:47:36.411Z)
Latitude
-0.00012°
Longitude
-74.71054°
Altitude
187.866 km
Speed
7.79 km/s
True Right ascension
04h 50m 09s
True Declination
0° 00' 00"
Sunlit
Object was in daylight at epoch
Visualization orbit readout
Latitude
Unknown
Longitude
Unknown
Altitude
Unknown
Speed
Unknown
Apparent Right ascension
Unknown
Apparent Declination
Unknown
Sunlit
N/A
Visualization observer readout
Local Sidereal Time
23:20:12
Azimuth
Unknown
Elevation
Unknown
Doppler factor
Unknown
Orbital elements
Apogee altitude
182.957 km
Perigee altitude
169.446 km
Semi-major axis
6,554.339 km
Eccentricity
0.00103
Inclination
97.398°
RAAN
72.5414°
Arg. of periapsis
219.3637°
True anomaly
140.76585°
Mean anomaly
140.6911°
Eccentric anomaly
140.72848°
Mean motion
4.09025 °/min
Orbital period
88.01 mins
BSTAR
0.00093288
Loading maneuver chart data...
Computing Atmospheric mass density...

Documentation

Showing up to 5 results
|